Total_Precipitation_Accumulation
0.06 0.15 0.22 0.23 0.22 0.19 0.15 0.13 0.25 0.28 0.37 0.48 0.65 0.62 0.60 0.56 0.49 0.49 0.57 0.57 0.54 0.54 0.58 0.59 0.65 0.65 0.64 0.65 0.68 0.86 1.25 1.45 1.43 1.38 1.38 1.33 1.33 1.42 1.48 1.54 1.58 1.80 1.97 2.08
0.10 0.14 0.16 0.16 0.20 0.18 0.13 0.11 0.10 0.16 0.31 0.36 0.58 0.72 0.69 0.66 0.62 0.60 0.59 0.55 0.53 0.47 0.57 0.66 0.71 0.73 0.72 0.75 0.78 0.91 1.18 1.40 1.38 1.35 1.31 1.24 1.28 1.36 1.51 1.62 1.78 1.96 1.97 1.94
0.16 0.19 0.17 0.25 0.21 0.17 0.15 0.14 0.15 0.23 0.37 0.36 0.42 0.59 0.70 0.68 0.62 0.57 0.60 0.53 0.53 0.57 0.66 0.85 0.79 0.80 0.85 0.81 0.85 0.98 1.23 1.41 1.43 1.37 1.36 1.34 1.30 1.44 1.64 1.82 1.98 2.10 2.06 1.99
0.21 0.25 0.36 0.28 0.21 0.22 0.25 0.28 0.29 0.32 0.36 0.39 0.50 0.57 0.70 0.86 0.72 0.57 0.61 0.63 0.70 0.67 0.74 0.82 0.81 0.84 0.89 0.90 0.93 1.05 1.26 1.48 1.53 1.46 1.48 1.55 1.54 1.62 1.86 2.08 2.22 2.25 2.22 2.11
0.31 0.34 0.41 0.38 0.30 0.34 0.38 0.43 0.45 0.49 0.43 0.47 0.53 0.64 0.77 0.73 0.71 0.75 0.74 0.74 0.79 0.87 0.89 0.96 0.97 0.94 0.97 1.09 1.11 1.19 1.27 1.45 1.57 1.62 1.69 1.70 1.73 1.91 2.13 2.30 2.33 2.32 2.36 2.26
0.44 0.52 0.59 0.58 0.43 0.37 0.45 0.77 0.61 0.63 0.62 0.55 0.57 0.83 0.95 0.79 0.71 0.71 0.81 0.90 0.89 0.94 0.98 1.01 1.05 1.11 1.14 1.25 1.38 1.49 1.58 1.68 1.88 2.07 2.24 2.30 2.32 2.37 2.41 2.49 2.45 2.45 2.38 2.34
0.66 0.76 0.71 0.57 0.50 0.45 0.85 1.18 0.87 0.84 0.82 0.72 0.83 0.94 0.93 0.80 0.74 0.69 0.72 0.86 0.93 0.93 1.01 1.10 1.11 1.23 1.42 1.51 1.62 1.77 1.92 2.00 2.21 2.50 2.68 2.67 2.66 2.58 2.50 2.53 2.55 2.53 2.40 2.31
0.89 1.12 1.18 0.66 0.61 0.95 1.19 1.01 1.03 1.04 1.01 0.94 0.91 0.97 0.97 0.94 0.78 0.70 0.71 0.78 0.89 0.94 1.00 1.17 1.41 1.60 1.84 1.95 1.95 2.05 2.21 2.38 2.58 2.78 2.71 2.65 2.82 2.73 2.70 2.76 2.72 2.58 2.44 2.30
1.14 1.35 1.15 0.81 0.93 1.10 1.09 1.06 1.10 1.07 1.02 0.91 0.86 1.01 0.96 0.88 0.85 0.71 0.69 0.76 0.85 0.93 1.05 1.23 1.50 1.88 2.13 2.19 2.31 2.35 2.43 2.58 2.68 2.74 2.88 3.02 3.08 2.98 2.87 2.83 2.74 2.53 2.39 2.23
1.38 1.46 1.23 1.08 1.06 1.03 1.06 1.08 1.04 0.97 0.92 0.92 0.87 0.89 0.88 0.81 0.79 0.74 0.73 0.81 0.86 0.94 1.12 1.37 1.61 1.93 2.08 2.15 2.20 2.24 2.29 2.30 2.39 2.54 2.66 2.76 3.01 3.05 2.95 2.80 2.69 2.59 2.48 2.30
1.77 1.85 1.71 1.58 1.34 1.16 1.14 1.10 1.13 1.09 1.00 0.97 0.93 0.88 0.80 0.78 0.76 0.76 0.75 0.85 0.93 1.02 1.14 1.27 1.48 1.68 1.78 1.95 2.04 2.20 2.25 2.19 2.15 2.18 2.32 2.44 2.56 2.65 2.60 2.57 2.39 2.27 2.14 2.05
2.06 1.80 1.74 1.86 1.59 1.38 1.32 1.29 1.33 1.34 1.31 1.18 1.08 1.02 0.92 0.85 0.77 0.74 0.73 0.83 0.94 1.05 1.18 1.28 1.44 1.64 1.73 1.87 1.95 2.03 2.05 1.99 1.99 1.99 2.07 2.13 2.14 2.07 1.90 1.81 1.66 1.51 1.44 1.38
1.71 1.61 1.59 1.70 1.59 1.54 1.62 1.66 1.64 1.57 1.40 1.17 1.05 1.00 0.90 0.81 0.76 0.76 0.82 0.95 1.08 1.14 1.24 1.36 1.46 1.59 1.77 1.93 2.04 2.10 1.99 1.85 1.75 1.71 1.77 1.78 1.83 1.96 2.02 1.78 1.57 1.38 1.24 1.11
1.56 1.73 1.92 1.96 1.91 1.76 1.76 1.83 1.78 1.53 1.40 1.28 1.13 1.05 0.96 0.85 0.79 0.78 0.81 0.93 1.05 1.13 1.15 1.23 1.41 1.52 1.69 1.87 1.97 2.02 1.93 1.83 1.72 1.69 1.73 1.77 1.80 1.89 2.02 2.01 1.73 1.37 1.22 1.11
1.69 1.70 1.89 2.02 1.97 1.95 1.89 1.88 1.91 1.75 1.51 1.46 1.37 1.24 1.14 1.11 1.08 1.00 0.96 1.01 1.13 1.22 1.26 1.27 1.38 1.47 1.63 1.86 1.89 1.85 1.79 1.72 1.68 1.70 1.71 1.73 1.83 1.87 1.87 1.89 1.78 1.55 1.30 1.08
2.02 1.85 1.88 1.98 1.92 1.86 1.81 1.77 1.76 1.70 1.55 1.43 1.35 1.30 1.20 1.17 1.18 1.15 1.15 1.26 1.46 1.48 1.44 1.44 1.44 1.48 1.64 1.84 1.87 1.79 1.68 1.58 1.49 1.50 1.50 1.47 1.51 1.59 1.59 1.64 1.60 1.48 1.33 1.06
2.02 2.07 2.00 1.86 1.76 1.72 1.66 1.56 1.50 1.47 1.53 1.49 1.32 1.19 1.12 1.04 1.07 1.17 1.30 1.40 1.50 1.47 1.43 1.46 1.41 1.39 1.52 1.72 1.84 1.81 1.64 1.42 1.18 1.08 1.17 1.27 1.37 1.44 1.45 1.45 1.46 1.42 1.22 0.94
1.72 1.81 1.76 1.62 1.55 1.52 1.50 1.41 1.31 1.24 1.29 1.30 1.18 1.11 1.09 1.12 1.22 1.34 1.50 1.54 1.52 1.44 1.33 1.28 1.23 1.26 1.40 1.47 1.56 1.61 1.52 1.38 1.19 1.06 1.10 1.15 1.24 1.36 1.39 1.36 1.36 1.35 1.17 0.91
1.50 1.46 1.48 1.42 1.35 1.30 1.25 1.20 1.20 1.15 1.13 1.18 1.14 1.10 1.15 1.24 1.38 1.48 1.54 1.69 1.73 1.57 1.36 1.22 1.19 1.16 1.26 1.28 1.34 1.45 1.42 1.36 1.25 1.16 1.19 1.19 1.21 1.28 1.27 1.23 1.22 1.19 1.10 0.96
1.47 1.36 1.41 1.36 1.28 1.23 1.16 1.09 1.05 1.01 1.07 1.14 1.18 1.22 1.33 1.40 1.54 1.69 1.74 1.78 1.81 1.70 1.42 1.21 1.11 1.09 1.12 1.16 1.23 1.25 1.28 1.24 1.14 1.09 1.12 1.16 1.14 1.15 1.11 1.08 1.03 0.99 0.93 0.89
1.44 1.44 1.43 1.43 1.34 1.19 1.13 1.09 1.04 1.02 1.06 1.16 1.26 1.34 1.49 1.59 1.67 1.83 2.02 2.00 1.78 1.65 1.42 1.22 1.05 1.01 0.99 1.08 1.16 1.17 1.21 1.23 1.16 1.09 1.09 1.09 1.09 1.08 1.04 1.00 0.96 0.90 0.85 0.81
1.28 1.34 1.31 1.28 1.23 1.14 1.09 1.09 1.08 1.09 1.14 1.21 1.28 1.37 1.51 1.60 1.70 1.81 1.83 1.96 1.83 1.70 1.38 1.13 0.99 0.96 0.96 1.02 1.00 1.08 1.10 1.12 1.08 1.03 0.99 1.00 1.00 1.02 1.00 0.93 0.87 0.82 0.81 0.80
1.16 1.18 1.20 1.19 1.18 1.16 1.09 1.08 1.13 1.18 1.25 1.33 1.41 1.51 1.62 1.60 1.68 2.00 2.04 1.81 1.68 1.57 1.25 1.08 1.05 0.98 0.95 0.91 0.92 0.96 0.97 1.00 0.99 0.91 0.85 0.86 0.90 0.96 1.01 0.97 0.94 0.86 0.83 0.80
1.21 1.11 1.09 1.08 1.05 1.11 1.10 1.07 1.12 1.22 1.27 1.30 1.34 1.43 1.58 1.59 1.52 1.58 1.80 1.88 1.71 1.50 1.21 1.13 1.05 0.94 0.88 0.86 0.99 1.04 1.00 0.97 0.94 0.83 0.75 0.74 0.79 0.90 0.97 0.99 0.99 0.94 0.88 0.85
1.21 1.09 0.98 0.99 1.05 1.15 1.20 1.22 1.28 1.32 1.33 1.29 1.19 1.23 1.41 1.52 1.57 1.49 1.46 1.52 1.57 1.39 1.20 1.13 1.05 0.99 0.84 0.80 0.96 1.07 1.07 1.05 0.97 0.85 0.78 0.82 0.87 0.92 0.93 0.92 0.89 0.85 0.87 0.88
1.25 1.14 1.08 1.01 1.02 1.11 1.22 1.38 1.53 1.54 1.50 1.49 1.32 1.16 1.22 1.26 1.22 1.22 1.26 1.30 1.31 1.30 1.18 1.13 1.04 0.99 0.90 0.87 0.93 1.05 1.14 1.18 1.04 0.92 0.91 0.97 0.96 0.93 0.92 0.88 0.83 0.83 0.80 0.78
1.18 1.13 1.11 1.06 1.07 1.11 1.22 1.37 1.57 1.63 1.57 1.59 1.46 1.24 1.17 1.14 1.03 1.03 1.08 1.17 1.19 1.21 1.20 1.15 1.05 0.96 0.90 0.89 0.91 0.96 1.05 1.11 1.07 1.02 0.97 0.98 1.01 1.01 0.95 0.90 0.87 0.83 0.79 0.74